sat.trackr.live / text

‹ back to catalog

STARLINK-30052

NORAD 57611 · 2023-119K

PAYLOAD ACTIVE UNKNOWN

§ Identity

Operator
Country
US
Launch date
2023-08-11
Launch site
AFETR
Launch vehicle
Mass (kg)
RCS (m²)

Purposes: comms

External: N2YO · Heavens-Above · Gunter

§ Orbital elements

Epoch: 2026-05-24T21:27:04.562784Z

Period
94.27 min
Inclination
43.0049°
Eccentricity
0.0001399
Mean motion
15.27581952 rev/d
Perigee alt
482.1 km
Apogee alt
484.0 km
Semi-major
6,861.2 km
B*
-9.2353e-5
RAAN
10.9724°
Arg perigee
244.5354°
Mean anomaly
115.5353°
Rev number
15,472

§ Raw data

STARLINK-300521 57611U 23119K   26144.89380281 -.00002803  00000+0 -92353-4 0  99922 57611  43.0049  10.9724 0001399 244.5354 115.5353 15.27581952154721

JSON: /api/v1/satellites/57611 · /tle

For live sub-satellite position, see the globe view (requires WebGL).

§ Visibility from observer

Set your observer location to see the next 7 days of passes ≥ 10°. The values pass through the URL so the page stays shareable.

No JS? Fill the form by hand. The geolocation button needs JavaScript.